RYR9778 EDDF-LHBP

Flight info

Callsign RYR9778
Flight time N/A
Altitude 31000
Route SULUS7S/18 SULUS Z650 VEMUT/N0452F350 DCT PEPIK DCT NIT/N0403F230 M748 ARFOX
Aircraft B738/M-SDE2E3FGHIRWXY/LB1

Departure

Time 2026-05-06 18:14
Airport Frankfurt Main Airport (EDDF)

Arrival

Time N/A
Airport Budapest Liszt Ferenc International Airport (LHBP)
Time Latitude Longitude Altitude Speed Heading
2026-05-06 17:45 50.03822 8.54582 346 ft 0 kts 159°
2026-05-06 18:07 50.03817 8.54585 355 ft 5 kts 159°
2026-05-06 18:07 50.03795 8.54598 353 ft 1 kts 160°
2026-05-06 18:07 50.03775 8.54609 350 ft 7 kts 160°
2026-05-06 18:07 50.03721 8.54572 351 ft 10 kts 246°
2026-05-06 18:08 50.03706 8.54517 346 ft 0 kts 248°
2026-05-06 18:08 50.03706 8.54516 342 ft 0 kts 248°
2026-05-06 18:10 50.03705 8.54509 342 ft 2 kts 248°
2026-05-06 18:10 50.03699 8.54434 342 ft 10 kts 282°
2026-05-06 18:10 50.03751 8.54364 351 ft 10 kts 341°
2026-05-06 18:10 50.03806 8.54301 352 ft 10 kts 292°
2026-05-06 18:11 50.03791 8.54184 352 ft 12 kts 250°
2026-05-06 18:11 50.03757 8.54042 351 ft 17 kts 250°
2026-05-06 18:11 50.03704 8.53823 344 ft 26 kts 249°
2026-05-06 18:11 50.03637 8.53547 339 ft 27 kts 248°
2026-05-06 18:12 50.03575 8.53296 334 ft 20 kts 250°
2026-05-06 18:12 50.03559 8.53230 337 ft 0 kts 250°
2026-05-06 18:12 50.03540 8.53151 334 ft 18 kts 250°
2026-05-06 18:12 50.03492 8.52950 334 ft 19 kts 249°
2026-05-06 18:13 50.03440 8.52758 334 ft 19 kts 247°
2026-05-06 18:13 50.03395 8.52624 332 ft 14 kts 220°
2026-05-06 18:13 50.03267 8.52594 332 ft 41 kts 179°
2026-05-06 18:13 50.02729 8.52598 334 ft 112 kts 179°
2026-05-06 18:14 50.01744 8.52601 355 ft 168 kts 181°
2026-05-06 18:14 50.00545 8.52605 956 ft 177 kts 182°
2026-05-06 18:14 49.99291 8.52586 1751 ft 180 kts 182°
2026-05-06 18:14 49.98034 8.52575 2490 ft 187 kts 184°
2026-05-06 18:15 49.96678 8.53012 2832 ft 220 kts 148°
2026-05-06 18:15 49.95692 8.54945 3182 ft 239 kts 117°
2026-05-06 18:15 49.94916 8.57260 3745 ft 244 kts 119°
2026-05-06 18:15 49.94155 8.59637 3963 ft 248 kts 107°
2026-05-06 18:16 49.93957 8.62330 4022 ft 256 kts 92°
2026-05-06 18:16 49.93871 8.65127 4005 ft 260 kts 92°
2026-05-06 18:16 49.93732 8.67916 3982 ft 261 kts 102°
2026-05-06 18:16 49.92881 8.70458 3992 ft 274 kts 136°
2026-05-06 18:17 49.91354 8.72301 4008 ft 279 kts 147°
2026-05-06 18:17 49.89759 8.74022 4001 ft 278 kts 147°
2026-05-06 18:17 49.88275 8.75929 3983 ft 279 kts 129°